Location: Biltmore Gardens
(41.6070°N, 83.4666°W)
Time: 22:38:43
(UTC+00:00)

X-37B - Visible Passes

Search period start: 26 February 2021 00:00
Search period end: 08 March 2021 00:00
Orbit: 383 x 391 km, 45.0° (Epoch: 10 February)

Date Brightness Start Highest point End Pass type
(mag) Time Alt. Az. Time Alt. Az. Time Alt. Az.
26 Feb 1.9 10:16:57 37° NE 10:16:57 37° NE 10:19:22 10° E visible
27 Feb 0.6 10:53:29 34° WNW 10:54:43 73° NNE 10:57:52 10° ESE visible
28 Feb 2.8 09:57:48 26° ENE 09:57:48 26° ENE 09:59:24 10° E visible
28 Feb 1.2 11:30:05 11° W 11:32:55 41° SSW 11:35:55 10° SE visible
01 Mar 0.4 10:34:28 70° SW 10:34:37 72° SSW 10:37:45 10° ESE visible
02 Mar 3.8 09:38:57 13° ESE 09:38:57 13° ESE 09:39:24 10° ESE visible
02 Mar 2.0 11:11:15 17° WSW 11:12:40 23° SW 11:15:15 10° SSE visible
03 Mar 2.3 10:15:50 25° SSE 10:15:50 25° SSE 10:17:26 10° SE visible
04 Mar 2.8 10:52:52 13° SSW 10:52:52 13° SSW 10:53:55 10° S visible
